Regional Weather Roundup
Issued by NWS

Home | Current Version | Previous Version | Text Only | Print | Product List | Glossary Off
Versions: 1 2 3 4 5 6 7 8 9 10 11 12 13 14 15 16 17 18 19 20 21 22 23 24 25 26 27 28 29 30 31 32 33 34 35 36 37 38 39 40 41 42 43 44 45 46 47 48 49 50

000
ASUS43 KDMX 240001
RWRIA

WEATHER ROUNDUP FOR IOWA
NATIONAL WEATHER SERVICE DES MOINES IA
700 PM CDT TUE MAY 23 2017

NOTE: "FAIR" INDICATES FEW OR NO CLOUDS BELOW 12,000 FEET WITH NO
SIGNIFICANT WEATHER AND/OR OBSTRUCTIONS TO VISIBILITY.

* - THESE STATIONS ARE NOT NWS STATIONS...THUS NOT UNDER NWS
QUALITY CONTROL.  THEY ALSO DO NOT REPORT WEATHER SUCH
AS PRECIPITATION OR FOG.

IAZ001>003-012>014-020>022-031>034-043>046-240100-
   NORTHWEST IOWA

CITY           SKY/WX    TMP DP  RH WIND       PRES   REMARKS
CARROLL *      PTSUNNY   55  48  76 N14G20    29.78S
CHEROKEE *     HVY RAIN  51  48  89 N7G14     29.81S
DENISON *      PTSUNNY   55  45  67 N14       29.81F
LE MARS *      CLOUDY    54  48  82 N5        29.84S
ORANGE CITY *  PTSUNNY   54  48  82 N9        29.83S
SHELDON *      PTSUNNY   55  46  71 N16         N/A
SIOUX CITY     LGT RAIN  51  49  92 N14       29.84R
6HR MIN TEMP:  50; 6HR MAX TEMP:  60; 6HR PCP:  0.21;

SPENCER        LGT RAIN  57  48  72 N14       29.81R
6HR MIN TEMP:  52; 6HR MAX TEMP:  59; 6HR PCP:  0.02;

STORM LAKE *   LGT RAIN  50  46  87 N12       29.79F
$$

IAZ055>058-069>071-079>083-090>094-240100-
   SOUTHWEST IOWA

CITY           SKY/WX    TMP DP  RH WIND       PRES   REMARKS
ATLANTIC *     DRIZZLE   54  48  82 N10       29.80S
AUDUBON *      CLOUDY    55  48  76 NW5       29.80F
CLARINDA *     PTSUNNY   57  46  67 N15       29.82S
COUNCIL BLFS * CLOUDY    52  52 100 NW8       29.83S
CRESTON *      PTSUNNY   55  45  67 NW18      29.79S
HARLAN  *      MOSUNNY   55  46  71 NW14      29.84F
LAMONI         CLOUDY    56  45  66 NW15      29.77F
6HR MIN TEMP:  56; 6HR MAX TEMP:  61; 6HR PCP: TRACE;

RED OAK *      PTSUNNY   55  45  67 NW15G23   29.81S
SHENANDOAH *   PTSUNNY   59  45  58 NW12G20   29.82S
$$

IAZ047>049-059>061-072>074-084-240100-
   CENTRAL IOWA

CITY           SKY/WX    TMP DP  RH WIND       PRES   REMARKS
AMES           PTSUNNY   59  47  64 NW8       29.74F
6HR MIN TEMP:  52; 6HR MAX TEMP:  61; 6HR PCP:  0.07;

ANKENY *       MOSUNNY   59  45  58 NW10      29.76S
BOONE *        PTSUNNY   54  45  71 NW13G21   29.75S
CHARITON *     CLOUDY    54  50  87 CALM      29.76S
DES MOINES     PTSUNNY   58  47  66 NW10      29.75F
6HR MIN TEMP:  57; 6HR MAX TEMP:  64; 6HR PCP: TRACE;

GRINNELL*      MOSUNNY   57  46  67 W8        29.74F
KNOXVILLE *    PTSUNNY   57  45  62 NW8       29.74S
MARSHALLTOWN   LGT RAIN  52  47  83 NW6       29.73S
6HR MIN TEMP:  51; 6HR MAX TEMP:  61; 6HR PCP:  0.08;

NEWTON *       CLOUDY    59  46  63 NW13      29.73F
PELLA *        CLOUDY    61  47  59 NW7       29.75F
PERRY *        CLOUDY    57  47  70 NW12      29.77S
$$

IAZ004>006-015-016-023>025-035-036-240100-
   NORTH CENTRAL IOWA

CITY           SKY/WX    TMP DP  RH WIND       PRES   REMARKS
ALGONA *       CLOUDY    52  48  87 N16       29.79S
CLARION *      CLOUDY    54  50  87 N10       29.77S
ESTHERVILLE    CLOUDY    52  49  89 NE12      29.80S
6HR MIN TEMP:  49; 6HR MAX TEMP:  56; 6HR PCP:  0.05;

FORT DODGE *   CLOUDY    54  48  82 N6        29.78S
MASON CITY     LGT RAIN  52  47  83 N17       29.77F
6HR MIN TEMP:  51; 6HR MAX TEMP:  58; 6HR PCP:  0.02;

FOREST CITY *  LGT RAIN  52  43  71 N9        29.77S
WEBSTER CITY * MOSUNNY   54  46  76 N16G24    29.74S
IOWA FALLS *     N/A     54  47  78 N6        29.76F
$$

IAZ007>011-017>019-026>030-037>042-050>054-066-240100-
   NORTHEAST IOWA

CITY           SKY/WX    TMP DP  RH WIND       PRES   REMARKS
CEDAR RAPIDS   CLOUDY    57  50  77 N8        29.72F
6HR MIN TEMP:  55; 6HR MAX TEMP:  63; 6HR PCP: TRACE;

CHARLES CITY * PTSUNNY   55  50  82 N14       29.74S
CLINTON *      HVY RAIN  55  53  93 NW15      29.71R
DECORAH *      CLOUDY    54  52  94 VRB3      29.71F
DUBUQUE        CLOUDY    58  52  80 N8        29.70F
6HR MIN TEMP:  54; 6HR MAX TEMP:  62; 6HR PCP:  0.06;

MONTICELLO *   CLOUDY    59  46  63 NW16      29.71S
OELWEIN *      CLOUDY    55  50  82 N10       29.73S
WATERLOO       CLOUDY    57  46  66 N9        29.72F
6HR MIN TEMP:  56; 6HR MAX TEMP:  59; 6HR PCP: TRACE;

$$

IAZ064-065-067-068-078-240100-
   EAST CENTRAL IOWA

CITY           SKY/WX    TMP DP  RH WIND       PRES   REMARKS
DAVENPORT      CLOUDY    56  52  86 NW7       29.71S
6HR MIN TEMP:  55; 6HR MAX TEMP:  65; 6HR PCP:  0.03;

IOWA CITY      CLOUDY    59  49  69 NW8       29.73F
6HR MIN TEMP:  59; 6HR MAX TEMP:  66; 6HR PCP: TRACE;

MT. PLEASANT * CLOUDY    58  46  63 NW7       29.73S
MUSCATINE *    CLOUDY    59  48  67 NW10G17   29.72S
QUAD CITIES    CLOUDY    58  50  75 NW8       29.70R
6HR MIN TEMP:  58; 6HR MAX TEMP:  67; 6HR PCP:  0.01;

$$

IAZ062-063-075>077-085>089-095>099-240100-
   SOUTHEAST IOWA

CITY           SKY/WX    TMP DP  RH WIND       PRES   REMARKS
BURLINGTON     CLOUDY    60  50  69 NW9G20    29.71S
6HR MIN TEMP:  58; 6HR MAX TEMP:  67; 6HR PCP: TRACE;

FAIRFIELD *    CLOUDY    59  46  63 NW7       29.73S
FORT MADISON * CLOUDY    57  52  82 NW8       29.73F
KEOKUK *       CLOUDY    59  50  72 NW7G14    29.72S
OSKALOOSA *    PTSUNNY   58  45  62 NW8       29.74S
OTTUMWA        CLOUDY    57  47  69 W8        29.74S
6HR MIN TEMP:  57; 6HR MAX TEMP:  64;

WASHINGTON *   CLOUDY    57  46  67 NW8       29.73F
$$

ABBREVIATIONS USED IN REMARKS
   TC - TEMPERATURES IN CELSIUS
  WCI - WIND CHILL INDEX
   HX - HEAT INDEX
  VSB - VISIBILITY
$$





USA.gov is the U.S. government's official web portal to all federal, state and local government web resources and services.